Flag for Russia Weather past 2 weeks in Astrakhan, Russia

43 °F


Feels Like: 37 °F
Forecast: 32 / 51 °F
Wind: 10 mph from Northeast

Location: Astrakhan

Current Time: Oct 13, 2015 at 10:37:21 AM

Latest Report: Oct 13, 2015 at 10:00 AM

Visibility: 10 mi

Pressure: 30.39 "Hg

Humidity: 36%

Dew point: 18 °F

Location of AstrakhanLocation

Historic Weather in Astrakhan — Graph


Astrakhan temperature yesterday

Maximum temperature yesterday: 54 °F (at 2:30 PM)
Minimum temperature yesterday: 30 °F (at 12:00 AM)
Average temperature yesterday: 43 °F

Past Weeks' High & Low Weather Summary

High82 °F (Sep 28, 12:00 PM)100% (Oct 7, 5:00 AM)30.39 "Hg (Oct 7, 5:00 AM)
Low25 °F (Oct 9, 5:30 AM)12% (Oct 1, 3:00 PM)29.53 "Hg (Oct 7, 10:00 PM)
Average55 °F51%30.09 "Hg
* Reported Sep 28 9:00 AM — Oct 13 9:30 AM, Astrakhan, Weather by CustomWeather, © 2015

Note: Actual official high and low records may vary slightly from our data, if they occured in-between our weather recording intervals... More about our weather records


Astrakhan weather history for previous 24 hours

Time TempWeatherWind HumidityBarometerVisibility
9:30 AM
Tue, Oct 13
41 °FSunny.13 mph39%30.39 "Hg10 mi
9:00 AM39 °FSunny.10 mph42%30.39 "Hg10 mi
8:30 AM37 °FSunny.10 mph48%30.39 "Hg10 mi
8:00 AM37 °FSunny.8 mph45%30.39 "Hg10 mi
7:30 AM34 °FSunny.8 mph51%30.39 "Hg10 mi
7:00 AM32 °FClear.8 mph55%30.39 "Hg10 mi
6:30 AM30 °FClear.8 mph59%30.36 "Hg10 mi
6:00 AM30 °FClear.6 mph59%30.36 "Hg10 mi
5:30 AM32 °FClear.8 mph55%30.36 "Hg10 mi
5:00 AM32 °FClear.8 mph55%30.36 "Hg10 mi
4:30 AM32 °FClear.10 mph55%30.36 "Hg10 mi
4:00 AM32 °FClear.8 mph55%30.33 "Hg10 mi
3:30 AM32 °FClear.10 mph55%30.33 "Hg10 mi
3:00 AM32 °FClear.8 mph51%30.33 "Hg10 mi
2:30 AM34 °FClear.10 mph48%30.33 "Hg10 mi
2:00 AM34 °FClear.10 mph48%30.33 "Hg10 mi
1:30 AM36 °FClear.10 mph44%30.33 "Hg10 mi
1:00 AM36 °FClear.10 mph44%30.33 "Hg10 mi
12:30 AM36 °FClear.10 mph44%30.33 "Hg10 mi
12:00 AM37 °FClear.13 mph41%30.33 "Hg10 mi
11:30 PM
Mon, Oct 12
37 °FClear.10 mph45%30.33 "Hg10 mi
11:00 PM39 °FClear.13 mph42%30.33 "Hg10 mi
10:30 PM41 °FClear.10 mph42%30.30 "Hg10 mi
10:00 PM41 °FClear.8 mph42%30.30 "Hg10 mi
9:30 PM41 °FClear.6 mph42%30.30 "Hg10 mi
9:00 PM41 °FClear.6 mph45%30.27 "Hg10 mi
8:30 PM41 °FClear.6 mph45%30.27 "Hg10 mi
8:00 PM43 °FClear.6 mph42%30.27 "Hg10 mi
7:30 PM43 °FClear.6 mph42%30.27 "Hg10 mi
7:00 PM45 °FClear.3 mph39%30.27 "Hg10 mi
6:30 PM45 °FClear.6 mph37%30.24 "Hg10 mi
6:00 PM46 °FSunny.6 mph37%30.24 "Hg10 mi
5:30 PM46 °FSunny.3 mph34%30.24 "Hg10 mi
5:00 PM48 °FSunny.6 mph29%30.21 "Hg10 mi
4:30 PM50 °FSunny.8 mph28%30.21 "Hg10 mi
4:00 PM50 °FPassing clouds.6 mph28%30.21 "HgN/A
3:30 PM52 °FPassing clouds.8 mph26%30.21 "HgN/A
3:00 PM52 °FSunny.8 mph28%30.21 "Hg10 mi
2:30 PM54 °FPassing clouds.6 mph24%30.21 "HgN/A
2:00 PM52 °FPassing clouds.6 mph26%30.21 "HgN/A
1:30 PM52 °FPassing clouds.6 mph26%30.21 "HgN/A
1:00 PM52 °FPassing clouds.6 mph28%30.21 "HgN/A
12:30 PM52 °FPassing clouds.6 mph28%30.21 "HgN/A
12:00 PM50 °FPassing clouds.8 mph28%30.21 "HgN/A
11:30 AM50 °FSunny.8 mph28%30.24 "Hg10 mi
11:00 AM48 °FPassing clouds.8 mph32%30.24 "HgN/A
10:30 AM48 °FSunny.8 mph32%30.21 "Hg10 mi
10:00 AM48 °FPassing clouds.6 mph32%30.21 "HgN/A
Weather by CustomWeather, © 2015

See weather overviewHow to use our weather pages